Location: Johnson City
(36.3130°N, 82.3540°W)
Time: 11:37:31
(UTC-05:00)

Hubble Space Telescope - Pass Details

Date: 03 December 2021
Orbit: 534 x 538 km, 28.5° (Epoch: 19 January)

Event Time Altitude Azimuth Distance (km) Brightness Sun altitude
Exits shadow 05:03:26 17° 163° (SSE) 1,376 3.1 -27.8°
Drops below altitude 10° 05:05:02 10° 143° (SE) 1,771 3.9 -27.4°
Sets 05:07:42 0° 126° (SE) 2,660 5.3 -26.9°
